Find Starlink 30797

NORAD ID: 58154 Int'l Des: 2023-166 Owner: SPXS Country: US Constellation: starlink operational
LEOCIRCULAR

当前视图

正在加载3D地球...

About Starlink 30797

Starlink 30797 (NORAD 58154) is a starlink constellation satellite (v2 mini) launched Oct 29, 2023 by SPXS of US. It operates in LEO, CIRCULAR orbit with a mass of 730.00 kg.

关于 Starlink 30797

正在加载描述...

即将过境

Passes for default location (London). Set your location on the main map for personalized predictions.

高度历史

Loading altitude history...

两行轨道根数

1 58154U 23166E 26170.12296885 -.00000310 00000-0 16615-5 0 9997
2 58154 53.1598 108.6344 0001384 101.5817 258.5340 15.30194360148553
Epoch: Jun 19, 2026 • Age: 8 hours

当前状态

高度 489.1 km
速度 7.62 km/s
星下点 -39.70°S, 2.89°E
发射日期 Oct 29, 2023
运行时间 2.6 years
类型 internet

技术详情

分类 Payload
质量 730.00 kg
干质量 700.00 kg
总质量 730.00 kg
长度 0.30 m
直径 4.10 m
跨度 29.00 m
形状 Box + pan
制造商 SPXS
平台类型 Starlink V2M
阶段状态 In Orbit
所有者/国家 SPXS/US

Most Searched